• Em Portugal
  • Lista de países
  • Para 7 dias
  • Temperatura da água
  • Mapas de satélite
  • Mapa do tempo
  • Widgets de tempo
  • user-avatar
    Iniciar Sessão

    Previsão horária em Al Hilla

    Hoje, 26 Setembro, Terça-feira

    Tempo Temperatura Precipitação Vento Pressão Humidade
    00:00 +36°C° 0 mm 2 m/s 753 mmHg 14%
    01:00 +35°C° 0 mm 2 m/s 753 mmHg 15%
    02:00 +35°C° 0 mm 2 m/s 753 mmHg 15%
    03:00 +34°C° 0 mm 2 m/s 753 mmHg 15%
    04:00 +34°C° 0 mm 2 m/s 753 mmHg 16%
    05:00 +34°C° 0 mm 2 m/s 753 mmHg 16%
    06:00 +32°C° 0 mm 2 m/s 753 mmHg 16%
    07:00 +36°C° 0 mm 2 m/s 753 mmHg 14%
    08:00 +38°C° 0 mm 2 m/s 753 mmHg 13%
    09:00 +40°C° 0 mm 2 m/s 754 mmHg 11%
    10:00 +42°C° 0 mm 2 m/s 754 mmHg 10%
    11:00 +43°C° 0 mm 2 m/s 754 mmHg 9%
    12:00 +45°C° 0 mm 3 m/s 754 mmHg 9%
    13:00 +46°C° 0 mm 3 m/s 753 mmHg 8%
    14:00 +46°C° 0 mm 3 m/s 753 mmHg 8%
    15:00 +47°C° 0 mm 4 m/s 752 mmHg 8%
    16:00 +45°C° 0 mm 3 m/s 752 mmHg 9%
    17:00 +43°C° 0 mm 3 m/s 752 mmHg 10%
    18:00 +40°C° 0 mm 2 m/s 752 mmHg 11%
    19:00 +40°C° 0 mm 2 m/s 752 mmHg 11%
    20:00 +39°C° 0 mm 2 m/s 752 mmHg 12%
    21:00 +38°C° 0 mm 2 m/s 752 mmHg 12%
    22:00 +38°C° 0 mm 2 m/s 752 mmHg 12%
    23:00 +37°C° 0 mm 2 m/s 752 mmHg 13%

    Amanhã, 27 Setembro, Quarta-feira

    Tempo Temperatura Precipitação Vento Pressão Humidade
    00:00 +37°C° 0 mm 2 m/s 752 mmHg 13%
    01:00 +36°C° 0 mm 2 m/s 752 mmHg 14%
    02:00 +35°C° 0 mm 2 m/s 752 mmHg 14%
    03:00 +34°C° 0 mm 1 m/s 752 mmHg 15%
    04:00 +34°C° 0 mm 2 m/s 753 mmHg 15%
    05:00 +34°C° 0 mm 2 m/s 753 mmHg 16%
    06:00 +32°C° 0 mm 2 m/s 753 mmHg 16%
    07:00 +36°C° 0 mm 2 m/s 753 mmHg 14%
    08:00 +38°C° 0 mm 3 m/s 754 mmHg 12%
    09:00 +41°C° 0 mm 4 m/s 754 mmHg 11%
    10:00 +42°C° 0 mm 4 m/s 754 mmHg 10%
    11:00 +45°C° 0 mm 5 m/s 754 mmHg 10%
    12:00 +46°C° 0 mm 5 m/s 754 mmHg 10%
    13:00 +46°C° 0 mm 5 m/s 754 mmHg 10%
    14:00 +46°C° 0 mm 5 m/s 753 mmHg 10%
    15:00 +46°C° 0 mm 6 m/s 753 mmHg 11%
    16:00 +45°C° 0 mm 5 m/s 753 mmHg 12%
    17:00 +42°C° 0 mm 5 m/s 753 mmHg 14%
    18:00 +41°C° 0 mm 5 m/s 753 mmHg 16%
    19:00 +40°C° 0 mm 5 m/s 753 mmHg 17%
    20:00 +39°C° 0 mm 6 m/s 753 mmHg 18%
    21:00 +38°C° 0 mm 6 m/s 754 mmHg 19%
    22:00 +36°C° 0 mm 6 m/s 754 mmHg 21%
    23:00 +36°C° 0 mm 6 m/s 754 mmHg 22%

    Depois de amanhã, 28 Setembro, Quinta-feira

    Tempo Temperatura Precipitação Vento Pressão Humidade
    00:00 +35°C° 0 mm 6 m/s 754 mmHg 23%
    01:00 +35°C° 0 mm 5 m/s 754 mmHg 24%
    02:00 +34°C° 0 mm 5 m/s 754 mmHg 25%
    03:00 +33°C° 0 mm 5 m/s 754 mmHg 26%
    04:00 +33°C° 0 mm 4 m/s 754 mmHg 26%
    05:00 +32°C° 0 mm 4 m/s 754 mmHg 26%
    06:00 +32°C° 0 mm 4 m/s 754 mmHg 27%
    07:00 +34°C° 0 mm 4 m/s 755 mmHg 24%
    08:00 +35°C° 0 mm 5 m/s 755 mmHg 20%
    09:00 +37°C° 0 mm 5 m/s 756 mmHg 17%
    10:00 +39°C° 0 mm 5 m/s 755 mmHg 16%
    11:00 +41°C° 0 mm 5 m/s 755 mmHg 14%
    12:00 +42°C° 0 mm 5 m/s 755 mmHg 12%
    13:00 +42°C° 0 mm 5 m/s 755 mmHg 12%
    14:00 +42°C° 0 mm 5 m/s 754 mmHg 12%
    15:00 +43°C° 0 mm 5 m/s 754 mmHg 12%
    16:00 +42°C° 0 mm 5 m/s 754 mmHg 13%
    17:00 +40°C° 0 mm 4 m/s 754 mmHg 14%
    18:00 +38°C° 0 mm 4 m/s 754 mmHg 15%
    19:00 +37°C° 0 mm 4 m/s 754 mmHg 16%
    20:00 +36°C° 0 mm 4 m/s 754 mmHg 17%
    21:00 +35°C° 0 mm 5 m/s 755 mmHg 18%
    22:00 +35°C° 0 mm 5 m/s 754 mmHg 18%
    23:00 +34°C° 0 mm 5 m/s 754 mmHg 18%

    29 Setembro, Sexta-feira

    Tempo Temperatura Precipitação Vento Pressão Humidade
    00:00 +34°C° 0 mm 5 m/s 754 mmHg 19%
    01:00 +33°C° 0 mm 4 m/s 754 mmHg 19%
    02:00 +33°C° 0 mm 4 m/s 754 mmHg 19%
    03:00 +32°C° 0 mm 4 m/s 753 mmHg 20%
    04:00 +32°C° 0 mm 4 m/s 753 mmHg 20%
    05:00 +31°C° 0 mm 3 m/s 753 mmHg 19%
    06:00 +30°C° 0 mm 3 m/s 754 mmHg 19%
    07:00 +34°C° 0 mm 3 m/s 754 mmHg 17%
    08:00 +36°C° 0 mm 3 m/s 754 mmHg 15%
    09:00 +38°C° 0 mm 3 m/s 754 mmHg 12%
    10:00 +39°C° 0 mm 3 m/s 754 mmHg 12%
    11:00 +41°C° 0 mm 2 m/s 754 mmHg 11%
    12:00 +42°C° 0 mm 1 m/s 753 mmHg 11%
    13:00 +42°C° 0 mm 1 m/s 753 mmHg 10%
    14:00 +43°C° 0 mm 2 m/s 752 mmHg 10%
    15:00 +43°C° 0 mm 2 m/s 752 mmHg 9%
    16:00 +42°C° 0 mm 2 m/s 751 mmHg 10%
    17:00 +40°C° 0 mm 2 m/s 751 mmHg 11%
    18:00 +39°C° 0 mm 2 m/s 751 mmHg 12%
    19:00 +39°C° 0 mm 2 m/s 751 mmHg 12%
    20:00 +38°C° 0 mm 3 m/s 751 mmHg 12%
    21:00 +38°C° 0 mm 3 m/s 751 mmHg 13%
    22:00 +37°C° 0 mm 3 m/s 751 mmHg 13%
    23:00 +37°C° 0 mm 3 m/s 751 mmHg 14%

    30 Setembro, Sábado

    Tempo Temperatura Precipitação Vento Pressão Humidade
    00:00 +36°C° 0 mm 3 m/s 751 mmHg 14%
    01:00 +36°C° 0 mm 4 m/s 751 mmHg 14%
    02:00 +35°C° 0 mm 4 m/s 750 mmHg 15%
    03:00 +35°C° 0 mm 4 m/s 750 mmHg 15%
    04:00 +35°C° 0 mm 4 m/s 750 mmHg 15%
    05:00 +34°C° 0 mm 5 m/s 751 mmHg 15%
    06:00 +34°C° 0 mm 5 m/s 751 mmHg 15%
    07:00 +36°C° 0 mm 6 m/s 751 mmHg 12%
    08:00 +40°C° 0 mm 7 m/s 751 mmHg 10%
    09:00 +43°C° 0 mm 8 m/s 752 mmHg 8%
    10:00 +44°C° 0 mm 8 m/s 752 mmHg 7%
    11:00 +45°C° 0 mm 9 m/s 752 mmHg 7%
    12:00 +48°C° 0 mm 9 m/s 751 mmHg 7%
    13:00 +46°C° 0 mm 8 m/s 751 mmHg 8%
    14:00 +46°C° 0 mm 8 m/s 751 mmHg 9%
    15:00 +45°C° 0 mm 7 m/s 751 mmHg 10%
    16:00 +44°C° 0 mm 6 m/s 751 mmHg 13%
    17:00 +41°C° 0 mm 5 m/s 751 mmHg 15%
    18:00 +40°C° 0 mm 5 m/s 751 mmHg 17%
    19:00 +39°C° 0 mm 5 m/s 752 mmHg 19%
    20:00 +37°C° 0 mm 5 m/s 753 mmHg 20%
    21:00 +36°C° 0 mm 5 m/s 753 mmHg 22%
    22:00 +35°C° 0 mm 5 m/s 753 mmHg 23%
    23:00 +34°C° 0 mm 5 m/s 754 mmHg 24%

    1 Outubro, Domingo

    Tempo Temperatura Precipitação Vento Pressão Humidade
    00:00 +34°C° 0 mm 6 m/s 754 mmHg 26%
    01:00 +33°C° 0 mm 5 m/s 754 mmHg 27%
    02:00 +33°C° 0 mm 5 m/s 754 mmHg 29%
    03:00 +32°C° 0 mm 5 m/s 755 mmHg 30%
    04:00 +30°C° 0 mm 5 m/s 755 mmHg 31%
    05:00 +30°C° 0 mm 4 m/s 755 mmHg 32%
    06:00 +29°C° 0 mm 4 m/s 756 mmHg 33%
    07:00 +32°C° 0 mm 4 m/s 756 mmHg 29%
    08:00 +34°C° 0 mm 5 m/s 756 mmHg 26%
    09:00 +35°C° 0 mm 5 m/s 757 mmHg 22%
    10:00 +37°C° 0 mm 5 m/s 757 mmHg 20%
    11:00 +39°C° 0 mm 5 m/s 756 mmHg 17%
    12:00 +40°C° 0 mm 5 m/s 756 mmHg 15%
    13:00 +40°C° 0 mm 5 m/s 756 mmHg 14%
    14:00 +41°C° 0 mm 5 m/s 755 mmHg 13%
    15:00 +41°C° 0 mm 5 m/s 755 mmHg 13%
    16:00 +40°C° 0 mm 5 m/s 755 mmHg 14%
    17:00 +39°C° 0 mm 5 m/s 755 mmHg 15%
    18:00 +37°C° 0 mm 4 m/s 755 mmHg 16%
    19:00 +36°C° 0 mm 4 m/s 755 mmHg 18%
    20:00 +35°C° 0 mm 4 m/s 755 mmHg 19%
    21:00 +34°C° 0 mm 5 m/s 756 mmHg 21%
    22:00 +33°C° 0 mm 5 m/s 755 mmHg 22%
    23:00 +33°C° 0 mm 5 m/s 755 mmHg 22%
    Mostrar mais